Orbital Elements at Epoch 2459200.5 (2020-Dec-17.0) TDB
Reference: JPL 27 (heliocentric ecliptic J2000)
Element | Value | Uncertainty (1-sigma) | Units |
e | .18819932790275 | 3.8574e-08 | |
a | 2.669266187269207 | 1.18e-08 | au |
q | 2.166912084831606 | 1.0784e-07 | au |
i | 15.48182053887664 | 4.1528e-06 | deg |
node | 56.67451859590356 | 1.3005e-05 | deg |
peri | 31.97927617501791 | 1.7881e-05 | deg |
M | 341.958576760932 | 1.0077e-05 | deg |
tp | 2459280.327871328460 (2021-Mar-06.82787133) | 4.4601e-05 | TDB |
period | 1592.891719097567 4.36 | 1.0562e-05 2.892e-08 | d yr |
n | .2260040627268459 | 1.4986e-09 | deg/d |
Q | 3.171620289706808 | 1.402e-08 | au |
|
| | Orbit Determination Parameters
Additional Information
|